Temperature
16 16 16 17 17 16 15 15 15 15 15 17 17 17 18 18 18 18 18 18 18 18 18 18 18 18 18 17 17 17 17 17 16 16 16 16 16 16 16 16 16 15 15 15
16 17 17 17 17 16 16 16 15 16 16 17 17 18 17 18 18 18 18 18 18 18 18 18 18 18 18 18 17 17 17 17 16 16 16 16 16 16 16 16 16 16 15 15
15 16 17 16 17 17 17 16 16 16 17 17 16 16 17 18 18 18 18 18 19 19 19 18 18 18 18 18 17 17 17 17 16 16 16 16 16 16 16 16 16 16 16 15
14 15 16 17 17 17 17 17 16 17 16 16 17 18 19 19 19 19 19 19 19 19 19 19 19 18 18 18 17 17 17 17 16 16 16 16 16 16 16 16 16 16 16 15
13 14 15 17 17 17 17 17 16 16 16 17 17 17 18 19 19 20 20 20 19 19 19 19 19 19 18 18 17 17 17 17 17 16 16 16 16 16 16 16 16 15 15 15
13 14 15 17 17 18 17 17 17 16 16 16 16 16 17 19 20 19 19 19 19 19 19 19 19 18 18 18 17 17 17 17 17 16 16 16 16 16 16 16 15 15 15 15
13 14 15 16 17 17 17 17 18 17 17 16 16 17 19 19 19 19 19 19 19 19 19 19 18 18 18 18 18 17 17 17 17 16 16 16 16 16 15 15 15 15 15 15
12 14 15 16 16 16 17 18 18 18 18 17 18 18 19 19 19 19 19 19 19 19 19 18 18 18 18 18 18 17 17 17 17 16 16 16 16 15 15 15 15 15 15 15
13 14 16 16 17 18 18 18 18 18 18 18 18 18 19 19 19 19 19 19 19 19 19 18 18 18 18 18 18 17 17 17 17 16 16 16 15 15 15 15 15 15 15 15
13 14 15 16 17 18 18 19 19 19 19 19 18 18 18 19 18 19 19 19 18 18 18 18 18 18 18 18 17 17 17 17 16 16 16 15 15 15 15 15 15 15 15 15
12 13 15 16 17 18 18 18 19 19 18 19 19 18 18 18 18 18 18 18 18 18 18 18 18 18 17 17 17 17 17 16 16 16 16 15 15 15 15 15 15 15 15 14
13 14 14 16 17 18 18 18 18 18 18 18 18 18 18 18 18 18 18 18 18 18 18 18 17 17 17 17 17 17 17 16 16 16 16 15 15 15 14 14 14 14 14 14
15 16 16 16 17 17 17 18 18 18 18 18 18 18 18 18 17 17 17 17 17 17 17 17 17 17 17 17 17 17 16 16 16 16 15 15 15 15 14 14 14 14 14 13
15 15 15 16 16 17 17 17 17 18 18 18 18 18 18 17 17 17 17 17 17 17 17 17 17 17 17 16 16 16 16 16 16 15 15 15 15 14 14 14 14 14 13 13
15 15 15 16 16 16 16 17 17 17 17 17 17 17 17 17 17 17 17 16 16 16 16 16 16 16 16 16 16 16 15 15 15 15 15 15 15 14 14 14 14 13 13 13
14 15 15 15 15 15 16 16 16 17 16 17 17 17 17 17 17 16 16 16 16 16 16 16 16 16 16 16 15 15 15 15 15 15 15 14 14 14 14 13 13 13 13 12
13 13 14 14 14 15 15 16 16 16 16 16 16 16 16 16 16 16 16 16 16 16 16 16 16 15 15 15 15 15 15 15 15 14 14 14 14 14 13 13 13 12 12 12
14 14 14 14 15 15 15 15 16 16 16 16 16 16 16 16 16 16 16 15 15 15 15 15 15 15 15 15 15 15 15 14 14 14 14 14 13 13 13 13 12 12 12 11
13 14 14 14 14 15 15 15 15 15 15 15 15 15 16 15 15 15 15 15 15 15 14 14 14 14 14 14 14 14 14 14 14 14 13 13 13 12 12 12 11 11 11 11
13 13 13 13 14 14 15 15 15 15 15 15 15 15 15 15 15 14 14 14 14 14 14 14 14 14 14 14 14 14 14 13 13 13 13 12 12 12 11 11 11 10 10 10
12 13 13 13 13 14 14 14 14 14 14 14 14 14 14 14 14 14 14 14 14 13 13 13 13 13 13 13 13 13 13 13 13 12 12 12 11 11 11 10 10 10 9 9
12 12 12 13 13 13 13 13 14 14 13 13 14 14 14 14 13 13 13 13 13 13 13 13 13 13 12 12 12 12 12 12 12 11 11 11 11 10 10 10 9 9 9 8
11 12 12 12 12 13 13 13 13 13 13 13 13 13 13 13 13 13 13 12 12 12 12 12 12 12 12 12 12 11 11 11 11 11 10 10 10 10 9 9 8 8 8 8
11 11 11 12 12 12 12 12 12 12 12 12 12 13 13 13 12 12 12 12 11 11 11 11 11 11 11 11 11 11 10 10 10 10 10 9 9 9 8 8 8 7 7 7
10 11 11 11 11 11 12 12 12 12 12 12 12 12 12 12 12 11 11 11 11 11 11 11 11 10 10 10 10 10 10 9 9 9 9 9 8 8 8 7 7 7 7 6
10 10 10 11 11 11 11 11 11 11 11 11 11 11 11 11 11 11 10 10 10 10 10 10 10 10 10 10 9 9 9 9 8 8 8 8 8 7 7 7 6 6 6 6
9 9 9 10 10 10 10 10 10 10 10 10 10 10 10 10 10 10 10 10 10 10 9 9 9 9 9 9 9 8 8 8 8 8 8 7 7 7 6 6 6 6 5 5
Wind_Speed
6 6 4 5 6 8 8 8 8 8 8 10 8 6 4 4 4 5 6 7 9 9 9 9 9 9 9 9 8 8 8 8 7 6 5 5 4 4 4 4 4 4 4 3
3 4 4 5 7 9 8 7 7 6 8 8 6 3 3 5 6 7 8 9 9 10 10 11 11 11 10 10 9 9 9 8 7 7 6 6 5 5 5 4 4 4 4 4
3 3 1 6 7 8 6 6 8 9 9 5 3 5 6 6 8 9 9 9 10 11 12 12 12 12 12 11 9 10 9 8 8 8 7 6 6 6 6 5 4 4 3 4
2 1 6 8 4 6 7 6 6 6 6 5 6 5 5 6 8 8 8 8 9 10 10 10 10 11 10 10 11 10 9 8 8 8 7 6 6 6 5 4 4 3 3 3
3 4 6 6 2 4 5 5 4 5 4 4 2 0 3 5 6 8 8 8 8 9 9 9 10 11 12 11 10 10 10 9 9 9 8 8 7 6 5 4 4 3 3 3
4 4 6 7 4 2 4 4 3 4 4 3 3 1 5 4 4 4 5 5 6 7 7 9 10 12 13 12 11 11 10 10 9 9 9 9 8 6 4 4 4 4 3 3
5 5 7 6 3 4 4 6 3 4 4 4 5 6 4 2 2 3 4 5 6 8 9 9 10 12 12 11 12 11 9 8 8 8 8 8 7 5 5 5 5 4 3 2
5 4 7 3 5 6 6 3 3 4 4 4 4 3 2 2 2 2 3 4 6 8 7 8 10 12 12 11 10 9 9 8 8 7 7 7 7 6 6 6 6 4 3 2
8 7 5 4 6 4 3 3 3 3 2 3 2 2 2 1 2 2 4 5 5 7 8 7 9 11 11 9 8 9 9 9 8 7 6 7 8 8 6 5 5 4 3 3
3 5 5 4 3 3 3 3 3 2 2 2 3 3 2 2 2 3 3 4 5 7 8 8 7 8 8 8 9 10 10 8 8 8 7 6 6 6 6 6 5 4 4 3
3 5 3 4 3 3 2 1 0 1 1 3 4 3 3 3 3 4 4 4 6 7 8 8 8 7 7 8 10 10 9 8 7 7 7 6 5 4 5 5 5 6 5 5
6 6 5 6 4 3 2 2 1 1 1 0 3 4 4 4 4 4 4 5 6 6 7 7 8 7 7 8 10 10 8 7 6 6 6 6 6 4 4 3 4 5 6 6
5 3 4 4 3 2 2 1 1 2 3 2 1 3 5 4 4 4 5 5 6 6 7 7 8 7 7 8 9 10 9 8 6 6 6 6 6 6 5 4 6 5 4 5
4 2 2 3 2 2 0 1 2 2 2 2 3 4 5 5 5 5 4 4 5 6 6 7 8 7 6 8 9 9 8 8 8 7 7 6 6 6 6 6 4 2 2 4
4 4 4 2 2 1 1 3 4 3 2 2 3 4 5 6 5 4 3 4 6 6 6 6 7 6 6 8 8 9 8 6 6 6 6 6 6 6 5 6 5 4 3 3
2 1 2 2 2 1 2 3 3 3 2 2 3 4 5 6 5 5 4 5 6 6 6 6 6 5 7 8 8 7 6 10 9 7 6 6 6 6 5 5 5 4 4 3
4 3 3 4 4 4 3 4 4 4 4 4 4 4 6 7 6 5 4 4 5 5 5 5 4 5 6 7 8 6 6 7 10 8 6 6 6 6 6 6 5 4 3 3
7 8 8 7 6 5 3 3 3 4 4 4 5 6 7 7 7 6 4 5 6 5 4 3 4 5 6 7 7 6 7 6 6 7 6 6 6 6 6 6 6 5 3 4
4 5 5 5 6 5 5 4 3 3 4 6 7 7 6 6 6 6 6 6 6 4 1 2 7 7 6 7 8 7 7 8 7 6 6 8 7 6 6 6 5 5 4 4
2 3 3 3 3 4 4 3 3 4 4 6 7 7 6 5 6 6 6 5 3 3 3 4 6 6 6 7 9 6 7 8 8 7 6 6 6 6 5 5 5 5 4 4
2 3 3 3 2 2 3 4 5 5 5 6 7 7 6 5 6 6 6 4 1 3 5 7 5 5 5 7 9 6 7 7 7 7 7 7 6 6 5 5 5 5 4 4
1 2 3 3 3 2 2 3 4 5 5 6 6 7 7 6 6 5 4 3 3 6 5 4 4 7 9 9 6 7 7 7 7 6 6 6 6 6 5 5 5 4 4 3
1 2 3 3 4 3 2 3 4 5 6 6 7 7 7 6 5 6 4 2 4 7 5 4 7 11 12 8 6 7 7 7 7 6 6 6 6 6 5 5 4 4 4 3
1 2 2 3 4 4 3 3 3 4 5 5 5 6 7 6 4 2 4 7 8 8 6 7 11 13 11 6 6 6 6 6 6 6 6 6 5 5 5 5 4 4 4 4
1 2 3 4 4 3 4 4 5 6 6 5 4 4 4 4 5 5 5 6 9 9 6 9 12 12 8 6 6 6 6 6 7 7 6 6 5 5 5 5 5 4 4 3
2 2 2 2 3 3 4 4 4 4 5 5 4 4 4 5 6 6 6 7 8 9 7 6 7 8 6 6 7 7 6 7 7 6 6 6 6 6 5 5 5 4 4 4
2 2 2 2 2 2 4 4 5 5 5 6 6 4 5 5 6 6 7 6 6 6 6 6 6 6 6 6 7 6 6 6 7 6 6 6 5 5 5 5 5 5 5 4
Wind_Direction
231 238 204 212 213 188 192 195 200 227 234 255 262 254 243 212 193 180 182 182 182 182 181 178 177 178 178 175 170 166 162 166 175 169 161 155 154 156 152 150 153 150 141 136
252 250 225 234 231 211 212 205 216 238 257 252 254 243 231 208 195 200 202 198 192 188 183 183 184 182 178 176 173 165 169 175 170 160 160 163 164 156 146 143 140 139 148 148
235 272 357 261 225 202 204 200 191 220 240 242 246 238 227 213 203 209 210 204 196 194 191 190 188 182 180 177 167 167 172 171 169 165 165 171 164 153 153 155 148 146 154 149
179 133 233 246 232 195 203 227 210 226 242 229 230 239 239 217 206 211 211 205 200 195 193 189 184 177 170 162 163 168 171 170 169 167 166 161 155 161 160 153 154 158 160 158
161 207 262 287 252 173 188 249 213 214 245 254 228 358 287 238 212 210 208 204 198 191 186 176 172 166 158 159 163 167 174 176 174 168 165 163 167 171 164 154 155 158 155 157
158 187 228 242 249 206 140 259 253 202 219 226 123 163 269 257 214 212 203 192 183 170 160 163 164 157 158 164 168 178 183 181 173 168 168 172 173 166 156 153 158 151 145 158
177 207 253 251 246 117 151 243 258 202 207 189 190 216 249 255 208 192 182 175 164 159 164 168 160 157 162 167 181 184 174 166 162 166 172 169 160 153 148 145 141 144 147 147
165 191 244 231 139 170 216 239 221 209 206 202 223 248 261 233 192 153 145 147 151 156 160 157 156 158 164 179 181 163 156 158 162 162 165 159 149 146 145 144 144 148 140 129
188 207 231 205 201 220 201 218 233 220 224 182 207 244 250 184 159 145 141 146 149 149 147 149 160 163 170 176 155 150 152 158 158 153 153 148 150 149 143 146 150 156 156 164
216 253 251 251 248 243 225 220 235 222 198 178 199 211 186 149 144 135 132 144 140 140 143 152 160 163 165 153 148 148 153 156 151 149 146 143 147 151 153 161 162 165 168 176
224 262 294 285 259 257 260 253 270 90 174 187 171 172 162 149 145 143 133 140 142 147 154 160 158 153 147 145 144 145 149 151 149 148 150 146 142 148 161 174 176 175 182 176
211 217 202 245 264 257 215 216 189 127 357 324 160 157 144 140 141 137 134 137 138 140 146 150 148 147 147 148 147 146 147 150 151 150 149 147 141 116 80 111 137 154 160 161
210 209 213 243 273 268 207 221 217 174 173 167 150 142 136 133 131 128 128 131 141 143 144 143 145 149 154 152 149 151 154 156 152 151 153 152 151 150 139 84 78 94 120 140
228 200 243 256 272 298 173 105 89 78 79 132 140 131 126 122 123 126 136 141 137 131 134 140 144 151 157 153 149 149 149 153 153 157 158 156 158 158 156 149 134 96 78 110
236 222 220 254 307 341 94 107 101 92 86 90 118 129 132 133 136 138 131 126 122 122 130 139 144 151 153 154 151 150 148 151 151 149 147 144 143 141 141 142 139 131 107 85
234 205 184 189 207 198 151 143 145 160 152 145 141 142 138 133 127 118 116 126 133 140 146 148 152 158 152 150 145 145 146 144 142 142 139 137 137 140 141 140 140 139 141 144
183 204 196 192 209 212 204 193 178 176 167 165 166 145 128 120 115 114 116 117 124 127 129 135 144 144 147 150 145 141 136 139 136 132 137 142 143 145 145 142 141 139 145 140
204 206 202 196 200 202 205 189 170 166 169 166 150 137 136 140 144 143 134 113 100 91 90 115 131 132 136 140 137 134 135 136 138 139 138 137 136 136 134 135 138 137 127 113
208 212 212 207 203 190 186 181 170 163 156 149 146 147 147 148 145 139 132 124 123 119 104 107 122 122 126 135 131 132 134 133 131 130 133 131 127 126 130 133 134 134 130 122
176 175 176 187 181 174 173 168 151 142 146 147 138 132 132 140 141 137 130 125 143 162 152 128 122 121 124 130 124 129 131 133 133 130 127 128 130 129 130 130 129 127 124 124
152 150 146 148 148 160 167 162 149 145 144 144 143 146 147 143 138 136 131 123 102 117 123 121 123 126 124 126 119 122 126 128 129 131 131 130 127 125 125 126 126 127 128 127
156 154 155 146 142 151 164 152 146 144 138 135 137 138 136 135 131 118 112 134 145 128 121 122 123 127 127 120 116 118 121 123 123 125 127 130 131 132 130 129 129 128 127 128
170 166 160 159 159 154 124 125 138 144 145 146 148 149 147 146 146 142 137 135 134 126 119 124 128 126 121 116 118 119 121 121 123 125 126 128 130 132 132 132 130 129 129 126
118 133 144 141 124 120 122 123 123 127 129 132 139 144 142 134 115 107 129 135 132 122 116 123 122 119 113 112 115 117 118 119 118 117 116 117 119 121 124 124 122 121 121 118
114 111 120 127 129 140 143 128 114 109 107 107 108 110 117 129 135 132 126 128 128 118 114 120 119 114 109 111 112 114 115 118 120 119 119 119 119 117 117 118 120 118 113 110
127 136 152 162 161 154 147 139 134 133 130 123 111 104 104 107 117 120 119 117 118 116 114 112 113 110 108 109 110 112 114 115 112 112 115 115 113 113 113 112 109 109 108 108
99 105 108 101 107 134 141 144 146 148 148 142 133 125 122 121 121 121 119 118 116 113 111 110 112 113 112 112 110 110 112 112 113 113 112 111 111 111 112 111 108 108 108 108
Height
1504 1501 1502 1502 1502 1506 1510 1512 1517 1513 1509 1500 1495 1494 1493 1494 1495 1496 1498 1500 1502 1506 1509 1514 1518 1523 1527 1531 1536 1539 1543 1546 1549 1552 1555 1557 1559 1561 1562 1564 1565 1566 1567 1567
1503 1499 1499 1500 1498 1500 1502 1503 1505 1504 1502 1492 1491 1491 1491 1492 1493 1494 1496 1498 1500 1503 1507 1510 1514 1519 1524 1528 1533 1537 1541 1544 1548 1551 1553 1556 1558 1560 1562 1563 1565 1566 1567 1568
1509 1501 1500 1504 1494 1494 1495 1495 1497 1500 1494 1489 1489 1489 1488 1489 1490 1491 1492 1494 1497 1499 1503 1507 1511 1516 1520 1525 1530 1534 1538 1542 1546 1549 1551 1554 1557 1559 1561 1562 1564 1565 1566 1567
1509 1507 1512 1496 1484 1485 1488 1488 1488 1488 1486 1486 1485 1485 1485 1486 1486 1487 1489 1491 1493 1496 1499 1503 1508 1513 1518 1523 1527 1531 1536 1540 1543 1547 1549 1552 1555 1557 1559 1561 1563 1565 1566 1567
1509 1510 1503 1491 1483 1483 1486 1487 1483 1484 1483 1483 1482 1483 1483 1483 1484 1484 1486 1488 1490 1493 1496 1501 1505 1510 1515 1520 1524 1528 1532 1536 1540 1544 1547 1550 1553 1555 1558 1560 1561 1563 1565 1566
1507 1508 1506 1490 1479 1478 1483 1488 1480 1480 1480 1481 1482 1486 1483 1480 1481 1482 1484 1486 1488 1491 1494 1498 1502 1507 1512 1516 1521 1525 1529 1534 1537 1541 1545 1547 1550 1553 1556 1558 1560 1562 1563 1564
1503 1503 1495 1481 1477 1478 1492 1488 1477 1477 1477 1478 1479 1480 1479 1479 1479 1481 1482 1484 1486 1489 1492 1496 1500 1505 1509 1514 1518 1523 1527 1531 1535 1539 1542 1545 1548 1551 1554 1556 1558 1560 1561 1562
1499 1500 1495 1475 1476 1480 1479 1474 1474 1474 1475 1475 1476 1476 1476 1476 1477 1478 1480 1482 1484 1487 1490 1494 1498 1503 1507 1511 1516 1521 1525 1529 1533 1536 1539 1543 1546 1548 1551 1553 1555 1557 1559 1560
1484 1483 1474 1472 1472 1472 1472 1472 1472 1472 1473 1473 1474 1474 1474 1475 1476 1477 1478 1480 1483 1486 1489 1493 1497 1501 1505 1510 1514 1518 1522 1526 1530 1533 1537 1540 1543 1545 1548 1550 1552 1554 1556 1557
1477 1473 1470 1470 1469 1470 1470 1470 1470 1471 1471 1472 1472 1472 1473 1474 1475 1476 1478 1480 1482 1485 1489 1492 1496 1500 1504 1508 1512 1516 1520 1524 1527 1530 1533 1537 1540 1543 1545 1548 1550 1552 1553 1555
1473 1470 1468 1467 1467 1467 1468 1468 1469 1469 1470 1470 1470 1471 1472 1473 1474 1476 1478 1480 1482 1485 1488 1491 1495 1499 1503 1507 1511 1514 1518 1521 1525 1528 1531 1534 1537 1540 1543 1545 1548 1550 1551 1553
1469 1465 1466 1465 1465 1465 1466 1466 1467 1467 1468 1469 1470 1470 1471 1472 1474 1476 1478 1480 1482 1485 1488 1491 1495 1498 1502 1506 1509 1513 1516 1519 1523 1526 1529 1532 1535 1538 1541 1543 1545 1547 1549 1551
1460 1461 1462 1462 1463 1464 1464 1465 1466 1466 1467 1468 1469 1470 1471 1472 1474 1476 1478 1480 1482 1484 1488 1491 1494 1497 1501 1504 1508 1511 1514 1517 1520 1524 1527 1529 1532 1535 1538 1541 1543 1545 1546 1548
1458 1459 1459 1460 1460 1462 1462 1463 1464 1465 1467 1467 1468 1470 1471 1472 1474 1476 1478 1480 1482 1485 1487 1490 1493 1496 1500 1503 1506 1509 1512 1516 1519 1522 1525 1527 1530 1533 1535 1538 1540 1542 1544 1546
1455 1456 1457 1457 1459 1460 1460 1461 1463 1464 1466 1467 1468 1469 1471 1472 1474 1476 1478 1480 1482 1484 1487 1489 1492 1496 1499 1502 1505 1508 1511 1514 1517 1520 1523 1525 1528 1531 1533 1535 1537 1540 1542 1543
1452 1453 1454 1455 1457 1458 1459 1460 1461 1463 1464 1466 1467 1469 1470 1472 1474 1476 1478 1480 1482 1484 1486 1489 1491 1494 1497 1500 1503 1506 1509 1512 1515 1518 1521 1523 1526 1528 1531 1533 1535 1537 1539 1541
1449 1450 1452 1453 1455 1456 1457 1458 1459 1461 1463 1465 1466 1468 1470 1471 1474 1476 1478 1480 1482 1484 1486 1488 1490 1493 1496 1499 1502 1504 1507 1510 1513 1516 1518 1521 1524 1526 1528 1531 1533 1535 1537 1539
1446 1447 1448 1450 1452 1453 1455 1456 1458 1459 1461 1463 1465 1467 1469 1470 1472 1475 1477 1479 1481 1483 1485 1488 1490 1492 1495 1498 1500 1503 1505 1508 1511 1514 1516 1519 1522 1524 1527 1529 1531 1533 1535 1537
1442 1444 1446 1448 1449 1451 1452 1454 1456 1458 1460 1462 1464 1466 1468 1470 1472 1474 1476 1479 1480 1482 1484 1486 1489 1491 1494 1496 1499 1502 1504 1507 1509 1512 1515 1517 1520 1522 1525 1527 1529 1531 1533 1534
1439 1441 1444 1445 1447 1449 1450 1452 1454 1457 1459 1461 1463 1464 1467 1469 1471 1473 1475 1478 1480 1482 1484 1486 1488 1491 1493 1496 1498 1501 1503 1505 1508 1510 1513 1515 1518 1520 1523 1525 1527 1529 1530 1532
1437 1439 1441 1443 1445 1447 1449 1451 1453 1455 1457 1459 1461 1463 1465 1468 1470 1472 1474 1476 1479 1482 1484 1486 1488 1490 1492 1495 1497 1500 1502 1504 1507 1509 1512 1514 1516 1519 1521 1523 1525 1527 1529 1530
1436 1437 1439 1441 1443 1445 1447 1449 1451 1453 1455 1458 1460 1462 1464 1466 1469 1471 1474 1476 1479 1481 1483 1485 1487 1490 1492 1494 1497 1499 1501 1504 1506 1508 1511 1513 1515 1517 1520 1522 1523 1525 1526 1528
1435 1436 1438 1440 1441 1443 1445 1447 1450 1452 1454 1456 1458 1461 1463 1465 1468 1470 1472 1475 1478 1480 1482 1485 1487 1489 1492 1494 1496 1499 1501 1503 1505 1508 1510 1513 1515 1517 1518 1520 1522 1523 1525 1526
1434 1435 1437 1438 1440 1442 1444 1446 1449 1451 1453 1455 1457 1460 1462 1464 1466 1469 1472 1474 1477 1479 1481 1484 1487 1489 1492 1494 1496 1498 1500 1503 1505 1507 1510 1512 1514 1516 1517 1519 1520 1522 1523 1524
1432 1434 1435 1437 1439 1440 1443 1445 1447 1449 1452 1454 1456 1459 1461 1464 1466 1468 1470 1473 1476 1478 1481 1483 1486 1488 1491 1493 1495 1498 1500 1502 1504 1507 1509 1511 1513 1514 1516 1518 1519 1520 1521 1522
1431 1433 1434 1436 1438 1439 1441 1443 1445 1448 1450 1452 1455 1457 1460 1463 1466 1468 1470 1473 1475 1478 1480 1482 1485 1488 1490 1493 1495 1497 1499 1501 1504 1506 1508 1510 1512 1514 1515 1516 1517 1518 1519 1519
1430 1432 1433 1435 1437 1439 1440 1443 1445 1447 1449 1451 1454 1457 1460 1462 1465 1468 1470 1472 1475 1477 1480 1482 1485 1487 1490 1492 1494 1497 1499 1501 1503 1506 1508 1509 1511 1512 1514 1515 1515 1516 1517 1517